Location: Le Domaine
(47.0333°N, 76.5361°W)
Time: 20:40:17
(UTC-05:00)

Explorer 11/Cluster Stage 4 - Pass Details

Date: 20 November 2019
Orbit: 467 x 1259 km, 28.8° (Epoch: 13 December)

Event Time Altitude Azimuth Distance (km) Brightness Sun altitude
Rises 23:20:43 0° 243° (WSW) 3,658 - -62.1°
Reaches altitude 10° 23:25:40 10° 212° (SSW) 2,909 - -62.3°
Maximum altitude 23:27:40 11° 195° (SSW) 2,883 - -62.4°
Drops below altitude 10° 23:29:45 10° 179° (S) 3,041 - -62.4°
Sets 23:35:22 0° 149° (SSE) 4,132 - -62.6°
